Home   Weather   Nîmes   Past weeks

Flag for France Past Weather in Nîmes, Languedoc-Roussillon, France — Yesterday and Last 2 Weeks

Now
75 °F

Passing clouds.


Feels Like: 78 °F
Forecast: 55 / 81 °F
Wind: 14 mph from Northeast

Location: Nimes / Garons

Current Time: Sep 27, 2016 at 2:17:11 PM

Latest Report: Sep 27, 2016 at 1:30 PM


Visibility: N/A

Pressure: 30.21 "Hg

Humidity: 44%

Dew Point: 52 °F

Location of NîmesLocation

Past Weather in Nîmes — Graph

°F

Nîmes Temperature Yesterday

Maximum temperature yesterday: 77 °F (at 2:00 PM)
Minimum temperature yesterday: 61 °F (at 12:30 AM)
Average temperature yesterday: 68 °F

High & Low Weather Summary for the Past Weeks

 TemperatureHumidityPressure
High88 °F (Sep 13, 2:30 PM)100% (Sep 14, 10:30 PM)30.27 "Hg (Sep 14, 10:30 PM)
Low55 °F (Sep 21, 5:00 AM)30% (Sep 21, 2:30 PM)29.80 "Hg (Sep 14, 3:00 PM)
Average68 °F66%30.03 "Hg
* Reported Sep 12 1:00 PM — Sep 27 1:00 PM, Nîmes, Weather by CustomWeather, © 2016

Note: Actual official high and low records may vary slightly from our data, if they occured in-between our weather recording intervals... More about our weather records

Advertising

Nîmes Weather History for the Previous 24 Hours

Scroll right to see more
 ConditionsComfort  
Time TempWeatherWind HumidityBarometerVisibility
1:00 PM
Tue, Sep 27
73 °FSunny.15 mph44%30.24 "Hg10 mi
12:30 PM73 °FPassing clouds.15 mph47%30.24 "HgN/A
12:00 PM72 °FPassing clouds.14 mph50%30.24 "HgN/A
11:30 AM70 °FPassing clouds.12 mph53%30.24 "HgN/A
11:00 AM68 °FPassing clouds.9 mph56%30.24 "HgN/A
10:30 AM68 °FPassing clouds.9 mph56%30.24 "HgN/A
10:00 AM66 °FPassing clouds.7 mph60%30.24 "HgN/A
9:30 AM63 °FSunny.7 mph68%30.21 "Hg10 mi
9:00 AM61 °FSunny.7 mph72%30.21 "Hg10 mi
8:30 AM59 °FSunny.5 mph77%30.21 "Hg10 mi
8:00 AM59 °FSunny.5 mph77%30.18 "Hg10 mi
7:30 AM57 °FClear.3 mph77%30.18 "Hg10 mi
7:00 AM57 °FClear.5 mph77%30.18 "Hg10 mi
6:30 AM59 °FClear.2 mph77%30.18 "Hg10 mi
6:00 AM59 °FCool.3 mph77%30.18 "HgN/A
5:30 AM59 °FClear.5 mph77%30.18 "Hg10 mi
5:00 AM61 °FClear.7 mph72%30.18 "Hg10 mi
4:30 AM61 °FClear.6 mph77%30.15 "Hg10 mi
4:00 AM61 °FClear.6 mph77%30.15 "Hg10 mi
3:30 AM61 °FClear.6 mph77%30.15 "Hg10 mi
3:00 AM61 °FClear.7 mph77%30.15 "Hg10 mi
2:30 AM61 °FClear.7 mph77%30.18 "Hg10 mi
2:00 AM61 °FClear.8 mph77%30.15 "Hg10 mi
1:30 AM63 °FClear.7 mph73%30.15 "Hg10 mi
1:00 AM63 °FMild.8 mph73%30.15 "HgN/A
12:30 AM64 °FClear.9 mph68%30.18 "Hg10 mi
12:00 AM64 °FClear.8 mph73%30.18 "Hg10 mi
11:30 PM
Mon, Sep 26
64 °FClear.8 mph68%30.15 "Hg10 mi
11:00 PM64 °FClear.7 mph73%30.15 "Hg10 mi
10:30 PM66 °FClear.6 mph64%30.15 "Hg10 mi
10:00 PM68 °FClear.7 mph64%30.15 "Hg10 mi
9:30 PM68 °FClear.8 mph64%30.15 "Hg10 mi
9:00 PM68 °FClear.7 mph64%30.15 "Hg10 mi
8:30 PM68 °FClear.8 mph64%30.12 "Hg10 mi
8:00 PM70 °FClear.9 mph60%30.12 "Hg10 mi
7:30 PM72 °FSunny.7 mph57%30.09 "Hg10 mi
7:00 PM73 °FSunny.7 mph53%30.09 "Hg10 mi
6:30 PM75 °FPassing clouds.7 mph50%30.09 "HgN/A
6:00 PM77 °FPassing clouds.7 mph42%30.09 "HgN/A
5:30 PM77 °FPassing clouds.5 mph44%30.07 "HgN/A
4:30 PM77 °FSunny.2 mph44%30.07 "Hg10 mi
4:00 PM77 °FPassing clouds.5 mph44%30.09 "HgN/A
3:30 PM77 °FPassing clouds.7 mph47%30.09 "HgN/A
3:00 PM77 °FPassing clouds.7 mph47%30.09 "HgN/A
2:30 PM77 °FPassing clouds.6 mph47%30.09 "HgN/A
2:00 PM77 °FPassing clouds.8 mph47%30.09 "HgN/A
Weather by CustomWeather, © 2016

See weather overviewHow to use our weather pages